Location: Asheville, NC
(35.6000°N, 82.5500°W)
Time: 06:58:58
(UTC-05:00)

KKS-1 - Pass Details

Date: 13 February 2018
Orbit: 638 x 650 km, 98.3° (Epoch: 18 February)

Event Time Altitude Azimuth Distance (km) Brightness Sun altitude
Rises 04:43:12 0° 147° (SSE) 2,926 ? -32.2°
Reaches altitude 10° 04:45:30 10° 139° (SE) 2,023 ? -31.8°
Enters shadow 04:49:23 38° 78° (ENE) 985 ? -31.0°
